Madisonville, KY

5:45 PM CST on December 04, 2016 (GMT -0600)
Madisonville

Weather History for K2I0 - December, 2012

Change the Weather History Date:

Monday, December 17, 2012

  Actual Average (KOWB) Record (KOWB)
Temperature  
Mean Temperature 52 °F -  
Max Temperature 62 °F 43 °F 69 °F (1933)
Min Temperature 43 °F 26 °F -3 °F (1989)
Degree Days  
Heating Degree Days 12    
Growing Degree Days 2 (Base 50)    
Moisture  
Dew Point 51 °F    
Average Humidity 89    
Maximum Humidity 100    
Minimum Humidity 54    
Precipitation  
Precipitation 0.03 in - - ()
Sea Level Pressure  
Sea Level Pressure 29.68 in    
Wind  
Wind Speed 8 mph (WSW)    
Max Wind Speed 25 mph    
Max Gust Speed 32 mph    
Visibility 9 miles    
Events Rain    
Averages and records for this station are not official NWS values.
T = Trace of Precipitation, MM = Missing Value Source: NWS Daily Summary

Daily Weather History Graph

Daily Weather History Graph

Search for Another Location

Airport or City:

Trip Planner

Search our weather history database for the weather conditions in past years. The results will help you decide how hot, cold, wet, or windy it might be!

Date:

Astronomy

Dec. 17, 2012 Rise Set
Actual Time 6:58 AM CST 4:33 PM CST
Civil Twilight 6:28 AM CST 5:03 PM CST
Nautical Twilight 5:56 AM CST 5:35 PM CST
Astronomical Twilight 5:24 AM CST 6:07 PM CST
Moon 10:11 AM CST (12/17) 9:49 PM CST (12/17)
Length of Visible Light 10h 34m
Length of Day
9h 35m
Waxing Crescent, 25% of the Moon is Illuminated
Dec 17
Waxing Crescent
Dec 19
First Quarter
Dec 28
Full
Jan 4
Last Quarter
Jan 11
New

Hourly Weather History & Observations

Time (CST) Temp. Windchill Dew Point Humidity Pressure Visibility Wind Dir Wind Speed Gust Speed Precip Events Conditions
12:15 AM 56.5 °F - 54.7 °F 94% 29.75 in 10.0 mi SSW 6.9 mph - N/A   Mostly Cloudy
12:35 AM 56.5 °F - 54.9 °F 94% 29.74 in 10.0 mi SSW 6.9 mph - N/A   Mostly Cloudy
12:55 AM 56.5 °F - 55.0 °F 95% 29.74 in 10.0 mi SSW 5.8 mph - N/A   Mostly Cloudy
1:15 AM 56.5 °F - 55.0 °F 95% 29.73 in 10.0 mi South 4.6 mph - N/A   Mostly Cloudy
1:35 AM 56.1 °F - 54.9 °F 96% 29.74 in 10.0 mi South 5.8 mph - N/A   Mostly Cloudy
1:55 AM 56.3 °F - 54.9 °F 95% 29.74 in 10.0 mi SSW 5.8 mph - N/A   Mostly Cloudy
2:15 AM 56.1 °F - 55.0 °F 96% 29.73 in 10.0 mi SSW 4.6 mph - N/A Rain Light Rain
2:35 AM 55.6 °F - 54.7 °F 97% 29.73 in 10.0 mi SSW 4.6 mph - N/A   Scattered Clouds
2:55 AM 54.9 °F - 54.3 °F 98% 29.72 in 10.0 mi South 3.5 mph - N/A   Scattered Clouds
3:15 AM 53.8 °F - 53.6 °F 99% 29.72 in 10.0 mi Calm Calm - N/A   Scattered Clouds
3:35 AM 53.8 °F - 53.8 °F 100% 29.72 in 7.0 mi Calm Calm - N/A   Scattered Clouds
3:55 AM 52.7 °F - 52.7 °F 100% 29.71 in 10.0 mi South 3.5 mph - N/A   Mostly Cloudy
4:15 AM 52.5 °F - 52.5 °F 100% 29.71 in 10.0 mi South 4.6 mph - N/A   Overcast
4:35 AM 54.5 °F - 54.5 °F 100% 29.71 in 10.0 mi South 4.6 mph - N/A   Overcast
4:55 AM 55.4 °F - 55.4 °F 100% 29.70 in 10.0 mi South 3.5 mph - N/A Rain Light Rain
5:15 AM 54.3 °F - 54.3 °F 100% 29.70 in 10.0 mi South 3.5 mph - N/A   Overcast
5:35 AM 54.7 °F - 54.7 °F 100% 29.69 in 10.0 mi Calm Calm - N/A   Mostly Cloudy
5:55 AM 55.0 °F - 55.0 °F 100% 29.68 in 10.0 mi South 3.5 mph - N/A   Overcast
6:15 AM 53.1 °F - 53.1 °F 100% 29.68 in 7.0 mi WNW 3.5 mph - N/A   Overcast
6:35 AM 53.8 °F - 53.8 °F 100% 29.68 in 7.0 mi Calm Calm - N/A   Overcast
6:55 AM 54.3 °F - 54.3 °F 100% 29.67 in 5.0 mi Calm Calm - N/A   Mostly Cloudy
7:15 AM 54.5 °F - 54.5 °F 100% 29.67 in 4.0 mi South 5.8 mph - N/A   Mostly Cloudy
7:35 AM 54.9 °F - 54.9 °F 100% 29.67 in 5.0 mi South 4.6 mph - N/A   Overcast
7:55 AM 55.4 °F - 55.4 °F 100% 29.67 in 5.0 mi South 5.8 mph - N/A   Overcast
8:15 AM 55.6 °F - 55.6 °F 100% 29.66 in 5.0 mi South 4.6 mph - N/A   Overcast
8:35 AM 56.8 °F - 56.8 °F 100% 29.66 in 7.0 mi South 4.6 mph - N/A   Mostly Cloudy
8:55 AM 58.3 °F - 57.9 °F 99% 29.66 in 10.0 mi SSW 4.6 mph - N/A   Mostly Cloudy
9:15 AM 59.0 °F - 57.4 °F 94% 29.65 in 10.0 mi SW 8.1 mph - N/A   Overcast
9:35 AM 59.7 °F - 57.6 °F 93% 29.65 in 10.0 mi SSW 6.9 mph - N/A   Overcast
9:55 AM 60.8 °F - 57.7 °F 90% 29.65 in 10.0 mi SW 8.1 mph - N/A   Overcast
10:15 AM 61.0 °F - 56.3 °F 85% 29.66 in 10.0 mi SW 16.1 mph - N/A   Overcast
10:35 AM 60.3 °F - 56.1 °F 86% 29.65 in 10.0 mi WSW 13.8 mph 17.3 mph N/A   Mostly Cloudy
10:55 AM 60.4 °F - 54.5 °F 81% 29.63 in 10.0 mi SW 9.2 mph 12.7 mph N/A Rain Light Rain
11:15 AM 61.0 °F - 54.9 °F 80% 29.63 in 10.0 mi WSW 12.7 mph - N/A   Overcast
11:35 AM 61.2 °F - 54.7 °F 79% 29.63 in 10.0 mi WSW 15.0 mph - N/A Rain Light Rain
11:55 AM 60.4 °F - 55.4 °F 83% 29.61 in 10.0 mi WSW 13.8 mph - 0.03 in   Mostly Cloudy
12:15 PM 62.6 °F - 54.9 °F 76% 29.60 in 10.0 mi WSW 17.3 mph 23.0 mph N/A   Mostly Cloudy
12:35 PM 60.8 °F - 54.1 °F 79% 29.60 in 10.0 mi West 15.0 mph 19.6 mph N/A   Overcast
12:55 PM 62.2 °F - 54.3 °F 75% 29.59 in 10.0 mi West 10.4 mph - N/A   Mostly Cloudy
1:15 PM 61.2 °F - 50.4 °F 68% 29.60 in 10.0 mi West 25.3 mph 32.2 mph N/A   Mostly Cloudy
1:35 PM 58.8 °F - 47.3 °F 66% 29.58 in 10.0 mi WSW 15.0 mph 25.3 mph N/A   Overcast
1:55 PM 61.7 °F - 46.0 °F 56% 29.58 in 10.0 mi WSW 16.1 mph - N/A   Scattered Clouds
2:15 PM 60.3 °F - 44.2 °F 55% 29.57 in 10.0 mi WSW 16.1 mph 21.9 mph N/A   Clear
2:35 PM 61.7 °F - 45.0 °F 54% 29.57 in 10.0 mi West 13.8 mph - N/A   Clear
2:55 PM 61.2 °F - 45.9 °F 57% 29.57 in 10.0 mi WSW 11.5 mph - N/A   Clear
3:15 PM 61.2 °F - 46.8 °F 59% 29.57 in 10.0 mi West 11.5 mph - N/A   Clear
3:35 PM 61.0 °F - 45.9 °F 58% 29.58 in 10.0 mi West 11.5 mph - N/A   Clear
3:55 PM 59.4 °F - 46.4 °F 62% 29.58 in 10.0 mi WNW 13.8 mph 17.3 mph N/A   Scattered Clouds
6:35 PM 48.6 °F - 45.7 °F 90% 29.69 in 10.0 mi NW 10.4 mph - N/A   Overcast
6:55 PM 48.0 °F - 45.7 °F 92% 29.70 in 7.0 mi NNW 9.2 mph - N/A   Overcast
7:15 PM 47.3 °F - 45.5 °F 93% 29.70 in 7.0 mi NW 8.1 mph - N/A   Overcast
7:35 PM 46.9 °F - 45.5 °F 95% 29.71 in 7.0 mi WNW 12.7 mph 16.1 mph N/A   Overcast
7:55 PM 46.0 °F 40.6 °F 45.5 °F 98% 29.71 in 3.0 mi WNW 11.5 mph 17.3 mph N/A   Overcast
8:15 PM 45.7 °F 39.5 °F 45.0 °F 97% 29.72 in 5.0 mi WNW 13.8 mph 19.6 mph N/A   Overcast
8:35 PM 45.5 °F 39.9 °F 44.6 °F 97% 29.72 in 10.0 mi NW 11.5 mph 17.3 mph N/A   Overcast
8:55 PM 45.5 °F 39.9 °F 44.4 °F 96% 29.73 in 7.0 mi WNW 11.5 mph 17.3 mph N/A   Overcast
9:15 PM 45.1 °F 39.5 °F 44.1 °F 96% 29.73 in 10.0 mi WNW 11.5 mph 17.3 mph N/A   Overcast
9:35 PM 44.8 °F 39.0 °F 43.9 °F 97% 29.74 in 5.0 mi WNW 11.5 mph 16.1 mph N/A   Overcast
9:55 PM 44.6 °F 37.4 °F 43.3 °F 95% 29.75 in 10.0 mi NW 16.1 mph 20.7 mph N/A   Overcast
10:15 PM 44.6 °F 37.4 °F 42.3 °F 91% 29.76 in 10.0 mi WNW 16.1 mph 21.9 mph N/A   Overcast
10:35 PM 44.2 °F 38.0 °F 41.9 °F 91% 29.77 in 10.0 mi NW 12.7 mph 21.9 mph N/A   Overcast
10:55 PM 44.1 °F 38.1 °F 41.7 °F 91% 29.78 in 10.0 mi NW 11.5 mph 21.9 mph N/A   Overcast
11:15 PM 44.1 °F 38.1 °F 41.2 °F 90% 29.79 in 10.0 mi WNW 11.5 mph 16.1 mph N/A   Overcast
11:35 PM 43.9 °F 37.9 °F 40.6 °F 88% 29.80 in 10.0 mi WNW 11.5 mph 18.4 mph N/A   Overcast
11:55 PM 43.9 °F 38.8 °F 40.5 °F 88% 29.80 in 10.0 mi WNW 9.2 mph - N/A   Overcast